[[{"header":{"parameterUnit":"m.s-1","parameterCategory":1,"la1":30.2991,"la2":30.254,"lo1":-89.0895,"lo2":-89.0444,"dy":0.0017,"dx":0.0017,"nx":28,"ny":28,"refTime":"2025-08-22T03:00:00:Z","depth":0,"parameterNumber":2,"parameterNumberName":"U-component_of_WINDS"},"data":[0,0,0,0,0,0,0,0,0,0,0,0,0,0,0,0,0,0,0,0,0,0,0,0,0,0,0,0,0,0,0,0,0,0,0,0,0,0,0,0,0,0,0,0,0,0,0,0,0,0,0,0,0,0,0,0,0,0,-0.9021,-0.9021,0,-0.8981,-0.8981,-0.8981,-0.8964,-0.8964,-0.8964,-0.8964,-0.8927,-0.8926,-0.8924,0,0,0,0,0,0,0,0,0,0,0,0,0,-0.9085,-0.9084,-0.9021,-0.9021,-0.902,-0.8982,-0.8981,-0.898,-0.8964,-0.8964,-0.8964,-0.8964,-0.8927,-0.8926,-0.8924,0,0,0,0,0,0,0,0,0,0,0,0,0,-0.9052,-0.9083,-0.9021,-0.9007,-0.9006,-0.8982,-0.8981,-0.898,-0.8964,-0.8964,-0.8964,-0.8964,-0.8927,-0.8926,-0.8924,-0.8912,0,0,-0.8919,-0.8919,0,0,0,0,0,0,0,0,-0.9054,-0.905,-0.901,-0.9008,-0.9006,-0.8978,-0.8989,-0.8958,-0.8964,-0.898,-0.8964,-0.8964,-0.8944,-0.8941,-0.8933,-0.891,-0.8909,-0.8919,-0.8918,-0.8917,-0.8917,0,0,0,0,0,0,0,-0.9057,-0.9052,-0.9006,-0.9009,-0.9007,-0.9004,-0.8999,-0.8983,-0.8962,-0.8979,-0.8977,-0.8973,-0.8943,-0.8935,-0.8932,-0.8908,-0.8919,-0.8918,-0.8917,-0.8916,-0.8871,-0.8871,0,0,0,0,0,0,-0.9061,-0.9054,-0.9007,-0.9004,-0.9031,-0.9002,-0.8997,-0.8987,-0.8962,-0.8958,-0.8973,-0.8972,-0.8937,-0.8934,-0.8931,-0.8914,-0.8917,-0.8916,-0.8915,-0.8872,-0.8871,-0.8871,0,0,0,0,0,0,-0.9062,-0.9057,-0.9009,-0.9029,-0.9022,-0.9001,-0.899,-0.8986,-0.8978,-0.8957,-0.8954,-0.8968,-0.8937,-0.8933,-0.8916,-0.8912,-0.8915,-0.8914,-0.8872,-0.8871,-0.8871,-0.888,0,0,0,0,0,0,-0.9064,-0.9057,-0.9052,-0.9029,-0.9021,-0.8994,-0.8989,-0.8985,-0.8975,-0.8974,-0.8952,-0.8949,-0.8937,-0.8919,-0.8915,-0.891,-0.8912,-0.8872,-0.8872,-0.8871,-0.888,-0.888,-0.8881,0,0,0,0,0,-0.9066,-0.9058,-0.9052,-0.9047,-0.9014,-0.8994,-0.899,-0.8976,-0.8975,-0.897,-0.8956,-0.895,-0.8913,-0.8917,-0.8912,-0.8907,-0.8872,-0.8872,-0.8871,-0.888,-0.888,-0.8881,0,0,0,0,0,0,-0.9083,-0.9054,-0.9048,-0.9031,-0.9015,-0.8991,-0.8985,-0.8977,-0.8961,-0.8961,-0.8945,-0.894,-0.8925,-0.8914,-0.8919,-0.8893,-0.8892,-0.8891,-0.8901,-0.8901,-0.8901,-0.8904,-0.8911,0,0,0,0,0,-0.9084,-0.907,-0.9046,-0.9033,-0.9025,-0.9006,-0.8997,-0.8987,-0.897,-0.8964,-0.8949,-0.8933,-0.8918,-0.8909,-0.8894,-0.8879,-0.8873,-0.8873,-0.8873,-0.8873,-0.8872,-0.8862,-0.8861,-0.8869,-0.8869,-0.8869,0,0,-0.9088,-0.907,-0.9062,-0.9036,-0.9022,-0.9008,-0.9001,-0.8986,-0.8975,-0.8962,-0.8944,-0.8933,-0.8914,-0.8898,-0.889,-0.8889,-0.8868,-0.8872,-0.8873,-0.8872,-0.8861,-0.886,-0.886,-0.8869,-0.8869,-0.8869,0,0,-0.9087,-0.9072,-0.9059,-0.9045,-0.9023,-0.901,-0.9007,-0.8984,-0.8976,-0.8958,-0.8947,-0.8934,-0.8909,-0.8895,-0.8885,-0.8876,-0.887,-0.8872,-0.8873,-0.8863,-0.8862,-0.8862,-0.8858,-0.8857,-0.8871,-0.8871,-0.8871,0,-0.9094,-0.9071,-0.9054,-0.9039,-0.9027,-0.9013,-0.8999,-0.8987,-0.8962,-0.8955,-0.8954,-0.892,-0.8907,-0.8886,-0.8884,-0.8877,-0.8872,-0.8875,-0.8864,-0.8863,-0.8862,-0.8858,-0.8857,-0.8872,-0.8872,-0.8871,-0.8871,0,-0.908,-0.9064,-0.9056,-0.9031,-0.9018,-0.9005,-0.8986,-0.8975,-0.8966,-0.8953,-0.8935,-0.8918,-0.8898,-0.8893,-0.8885,-0.8871,-0.887,-0.8867,-0.8865,-0.8862,-0.8858,-0.8856,-0.8872,-0.8872,-0.8872,-0.8872,0,0,-0.909,-0.9053,-0.9051,-0.9039,-0.9013,-0.9,-0.8986,-0.8965,-0.8956,-0.8939,-0.8926,-0.8904,-0.8899,-0.8888,-0.8878,-0.8869,-0.8862,-0.8866,-0.8866,-0.8866,-0.8845,-0.8848,-0.8847,-0.8857,-0.8857,-0.8857,-0.8846,0,-0.9085,-0.9056,-0.904,-0.9018,-0.9003,-0.8988,-0.8975,-0.8958,-0.8945,-0.893,-0.8916,-0.89,-0.8896,-0.8889,-0.888,-0.8865,-0.8858,-0.8866,-0.8845,-0.8845,-0.885,-0.8845,-0.8848,-0.8839,-0.8845,-0.8845,-0.8844,0,-0.9076,-0.9057,-0.9033,-0.9008,-0.9001,-0.8989,-0.8968,-0.8954,-0.8934,-0.8925,-0.8911,-0.89,-0.8884,-0.8883,-0.886,-0.8866,-0.8856,-0.8848,-0.8847,-0.8845,-0.8845,-0.8842,-0.8836,-0.8835,-0.8842,-0.8842,-0.8842,0,-0.9084,-0.9054,-0.9035,-0.9025,-0.8995,-0.8987,-0.8974,-0.8954,-0.8942,-0.8924,-0.8916,-0.8897,-0.8886,-0.8872,-0.8856,-0.8857,-0.8834,-0.8832,-0.8827,-0.8827,-0.8823,-0.8824,-0.8815,-0.8817,-0.8817,-0.8817,-0.8817,0,-0.9081,-0.9067,-0.9038,-0.9027,-0.9011,-0.8991,-0.8976,-0.8962,-0.8944,-0.893,-0.8916,-0.8903,-0.8883,-0.8868,-0.8855,-0.8837,-0.8833,-0.8826,-0.8822,-0.8827,-0.8828,-0.8821,-0.8821,-0.8817,-0.8817,-0.8817,-0.8817,0,-0.9088,-0.9069,-0.9047,-0.9019,-0.9012,-0.9001,-0.8977,-0.8966,-0.8951,-0.8933,-0.8928,-0.8906,-0.8887,-0.8869,-0.8844,-0.8836,-0.8818,-0.8814,-0.8824,-0.8823,-0.8818,-0.8818,-0.8805,-0.8802,-0.8805,-0.8805,-0.8805,0,-0.9087,-0.9076,-0.9046,-0.9035,-0.9021,-0.9004,-0.8991,-0.8971,-0.8959,-0.8934,-0.8925,-0.8905,-0.8887,-0.8857,-0.8839,-0.882,-0.8816,-0.8812,-0.8813,-0.8817,-0.8815,-0.8816,-0.8814,-0.8813,-0.8813,-0.8813,-0.8813,0,-0.9088,-0.9078,-0.9059,-0.9037,-0.9021,-0.9003,-0.8985,-0.8976,-0.8953,-0.894,-0.8919,-0.8905,-0.8878,-0.8858,-0.8836,-0.8824,-0.8814,-0.8812,-0.881,-0.8814,-0.8821,-0.8817,-0.8825,-0.8813,-0.8813,-0.8813,-0.8813,-0.8813,-0.9091,-0.9079,-0.9056,-0.9035,-0.9018,-0.9001,-0.8988,-0.8971,-0.8953,-0.8929,-0.8918,-0.8897,-0.8876,-0.8845,-0.8832,-0.8816,-0.8814,-0.8811,-0.881,-0.8809,-0.881,-0.8823,-0.8812,-0.8812,-0.8812,-0.8812,-0.8812,0,-0.909,-0.9073,-0.9054,-0.9028,-0.9011,-0.9002,-0.898,-0.8967,-0.8949,-0.8929,-0.8911,-0.8887,-0.8867,-0.8846,-0.8825,-0.8815,-0.881,-0.881,-0.8811,-0.8808,-0.8813,-0.8817,-0.8814,-0.8814,-0.8814,-0.8814,-0.8814,-0.8814,-0.9088,-0.9067,-0.9054,-0.9025,-0.9009,-0.8987,-0.8975,-0.8959,-0.8943,-0.8916,-0.8898,-0.8884,-0.8864,-0.884,-0.8821,-0.8815,-0.8808,-0.8809,-0.8803,-0.8808,-0.8808,-0.8808,-0.8811,-0.8808,-0.8808,-0.8799,-0.8799,-0.8799]},{"header":{"parameterUnit":"m.s-1","parameterCategory":1,"la1":30.2991,"la2":30.254,"lo1":-89.0895,"lo2":-89.0444,"dy":0.0017,"dx":0.0017,"nx":28,"ny":28,"refTime":"2025-08-22T03:00:00:Z","depth":0,"parameterNumber":3,"parameterNumberName":"V-component_of_WINDS"},"data":[0,0,0,0,0,0,0,0,0,0,0,0,0,0,0,0,0,0,0,0,0,0,0,0,0,0,0,0,0,0,0,0,0,0,0,0,0,0,0,0,0,0,0,0,0,0,0,0,0,0,0,0,0,0,0,0,0,0,-2.5462,-2.5463,0,-2.5493,-2.5493,-2.5493,-2.5466,-2.5464,-2.5463,-2.5462,-2.5494,-2.5496,-2.5497,0,0,0,0,0,0,0,0,0,0,0,0,0,-2.5379,-2.5381,-2.5462,-2.5463,-2.5463,-2.5493,-2.5493,-2.5494,-2.5466,-2.5464,-2.5463,-2.5462,-2.5493,-2.5495,-2.5498,0,0,0,0,0,0,0,0,0,0,0,0,0,-2.5413,-2.5382,-2.5462,-2.5453,-2.5452,-2.5493,-2.5493,-2.5494,-2.5466,-2.5464,-2.5463,-2.5461,-2.5492,-2.5495,-2.5498,-2.5549,0,0,-2.5507,-2.5508,0,0,0,0,0,0,0,0,-2.5411,-2.5416,-2.5454,-2.5453,-2.5453,-2.5474,-2.5475,-2.5512,-2.5466,-2.5461,-2.5462,-2.546,-2.5488,-2.5491,-2.5501,-2.5551,-2.5552,-2.5507,-2.5509,-2.551,-2.5511,0,0,0,0,0,0,0,-2.5409,-2.5415,-2.5474,-2.5454,-2.5454,-2.5447,-2.545,-2.5482,-2.5484,-2.5461,-2.5459,-2.5463,-2.5488,-2.5498,-2.5501,-2.5553,-2.5507,-2.5509,-2.5511,-2.5512,-2.5646,-2.5647,0,0,0,0,0,0,-2.5408,-2.5413,-2.5473,-2.5475,-2.5427,-2.545,-2.5453,-2.5469,-2.5483,-2.5484,-2.5465,-2.5462,-2.5494,-2.5498,-2.5502,-2.5563,-2.551,-2.5512,-2.5514,-2.5644,-2.5646,-2.5648,0,0,0,0,0,0,-2.5406,-2.5413,-2.5472,-2.5444,-2.5451,-2.5453,-2.5471,-2.547,-2.548,-2.5486,-2.5486,-2.5475,-2.5493,-2.5498,-2.5538,-2.5564,-2.5514,-2.5516,-2.5642,-2.5644,-2.5647,-2.5685,0,0,0,0,0,0,-2.5404,-2.5413,-2.5433,-2.5444,-2.5452,-2.5507,-2.5472,-2.5472,-2.5485,-2.5482,-2.5496,-2.5496,-2.5492,-2.5534,-2.5541,-2.5567,-2.5519,-2.5639,-2.5643,-2.5646,-2.5682,-2.5689,-2.5695,0,0,0,0,0,-2.5401,-2.5442,-2.5434,-2.5441,-2.5477,-2.5509,-2.5513,-2.5507,-2.5488,-2.5507,-2.5511,-2.5496,-2.556,-2.5538,-2.5545,-2.5573,-2.5638,-2.5642,-2.5646,-2.5679,-2.5687,-2.5695,0,0,0,0,0,0,-2.5434,-2.5444,-2.5434,-2.5481,-2.5494,-2.5504,-2.5528,-2.5517,-2.5536,-2.5532,-2.5525,-2.5528,-2.5569,-2.5575,-2.555,-2.5623,-2.5596,-2.5601,-2.5618,-2.5626,-2.5633,-2.5631,-2.5521,0,0,0,0,0,-2.5446,-2.5471,-2.5479,-2.5519,-2.5526,-2.5526,-2.554,-2.5534,-2.5548,-2.5553,-2.556,-2.5573,-2.5596,-2.5612,-2.5633,-2.5682,-2.5685,-2.5705,-2.5712,-2.5717,-2.5722,-2.5748,-2.5757,-2.5662,-2.5662,-2.5662,0,0,-2.5473,-2.5481,-2.5498,-2.5526,-2.5535,-2.5561,-2.5531,-2.556,-2.5579,-2.5558,-2.5595,-2.56,-2.5615,-2.5659,-2.5679,-2.5665,-2.5749,-2.5723,-2.5727,-2.5729,-2.5753,-2.5762,-2.577,-2.5664,-2.5664,-2.5663,0,0,-2.5534,-2.5543,-2.5577,-2.5588,-2.5602,-2.5602,-2.561,-2.5622,-2.5624,-2.5662,-2.5646,-2.5669,-2.5709,-2.572,-2.573,-2.5795,-2.5782,-2.5803,-2.5838,-2.5863,-2.5871,-2.5877,-2.59,-2.5908,-2.5808,-2.5808,-2.5808,0,-2.5565,-2.5603,-2.5596,-2.5626,-2.5639,-2.5621,-2.5655,-2.5665,-2.5687,-2.5696,-2.568,-2.5729,-2.5738,-2.5784,-2.58,-2.581,-2.5819,-2.5801,-2.587,-2.5877,-2.5883,-2.5904,-2.5913,-2.581,-2.581,-2.581,-2.581,0,-2.564,-2.5667,-2.5693,-2.5714,-2.5729,-2.5761,-2.5759,-2.5776,-2.5769,-2.577,-2.5808,-2.5818,-2.5841,-2.5851,-2.5845,-2.5896,-2.5887,-2.5871,-2.5843,-2.5894,-2.5914,-2.5922,-2.5814,-2.5813,-2.5812,-2.5811,0,0,-2.5723,-2.5739,-2.5749,-2.5758,-2.5773,-2.5793,-2.5824,-2.5846,-2.5861,-2.5876,-2.5901,-2.5936,-2.592,-2.5933,-2.5927,-2.595,-2.6,-2.5931,-2.5931,-2.5942,-2.6056,-2.6068,-2.6078,-2.5991,-2.5993,-2.5994,-2.6055,0,-2.5784,-2.5838,-2.5833,-2.5884,-2.5908,-2.5891,-2.5918,-2.593,-2.5932,-2.5953,-2.5955,-2.5979,-2.5957,-2.5965,-2.5986,-2.5989,-2.6022,-2.5985,-2.6014,-2.6015,-2.6011,-2.6088,-2.6101,-2.6158,-2.6063,-2.6064,-2.6065,0,-2.5863,-2.5881,-2.5934,-2.5945,-2.5955,-2.5979,-2.5999,-2.6019,-2.6032,-2.6032,-2.6045,-2.6036,-2.6067,-2.6039,-2.6081,-2.6055,-2.6067,-2.607,-2.6073,-2.6075,-2.6043,-2.6092,-2.6176,-2.6184,-2.6077,-2.6076,-2.6075,0,-2.5917,-2.5955,-2.5991,-2.5999,-2.6013,-2.603,-2.6037,-2.6048,-2.6061,-2.6079,-2.6087,-2.6108,-2.6119,-2.6135,-2.6132,-2.6112,-2.6175,-2.6146,-2.6175,-2.6175,-2.6189,-2.6188,-2.6275,-2.6198,-2.6197,-2.6197,-2.6197,0,-2.5986,-2.6019,-2.6016,-2.6038,-2.6075,-2.6068,-2.6104,-2.6108,-2.6119,-2.6141,-2.6128,-2.615,-2.6144,-2.6165,-2.6163,-2.6198,-2.6203,-2.6203,-2.6202,-2.6204,-2.6204,-2.6212,-2.6207,-2.6199,-2.6199,-2.6199,-2.6198,0,-2.6053,-2.6052,-2.609,-2.61,-2.6103,-2.6129,-2.6137,-2.6158,-2.6159,-2.6188,-2.6194,-2.6196,-2.622,-2.6218,-2.6246,-2.6244,-2.6287,-2.6281,-2.6283,-2.6281,-2.631,-2.6307,-2.6405,-2.6417,-2.6332,-2.6332,-2.6333,0,-2.6097,-2.6122,-2.6134,-2.6148,-2.6155,-2.6179,-2.6192,-2.6186,-2.6201,-2.6217,-2.6236,-2.6259,-2.6278,-2.6317,-2.6321,-2.6341,-2.6336,-2.6369,-2.6339,-2.634,-2.6336,-2.6334,-2.6336,-2.6374,-2.6375,-2.6376,-2.6377,0,-2.6174,-2.6172,-2.6192,-2.6212,-2.6229,-2.6244,-2.6258,-2.6271,-2.6266,-2.6283,-2.6308,-2.6322,-2.635,-2.6373,-2.6392,-2.6399,-2.6387,-2.6386,-2.6394,-2.6396,-2.6395,-2.6395,-2.6298,-2.6384,-2.6383,-2.6383,-2.6382,-2.6382,-2.623,-2.6252,-2.6263,-2.6286,-2.6296,-2.6309,-2.6329,-2.6332,-2.6352,-2.6374,-2.637,-2.6397,-2.6409,-2.6434,-2.6442,-2.6464,-2.6452,-2.6463,-2.6466,-2.6469,-2.6472,-2.6392,-2.6467,-2.6467,-2.6467,-2.6467,-2.6467,0,-2.6307,-2.6313,-2.6334,-2.6354,-2.6372,-2.6359,-2.6374,-2.6389,-2.6413,-2.6425,-2.6443,-2.6471,-2.6493,-2.6498,-2.6519,-2.6535,-2.653,-2.6541,-2.6539,-2.6541,-2.6481,-2.6472,-2.6544,-2.6544,-2.6544,-2.6544,-2.6544,-2.6544,-2.6348,-2.6383,-2.6383,-2.6422,-2.6428,-2.6455,-2.6464,-2.6476,-2.6486,-2.6517,-2.6536,-2.6539,-2.6547,-2.6569,-2.6588,-2.6589,-2.6597,-2.661,-2.6609,-2.6553,-2.6545,-2.6538,-2.6529,-2.6612,-2.6612,-2.6666,-2.6667,-2.6667]}]]